Regional Weather Roundup
Issued by NWS

Home | Current Version | Previous Version | Graphics & Text | Print | Product List | Glossary On
Versions: 1 2 3 4 5 6 7 8 9 10 11 12 13 14 15 16 17 18 19 20 21 22 23 24 25 26 27 28 29 30 31 32 33 34 35 36 37 38 39 40 41 42 43 44 45 46 47 48 49 50
000
ASUS43 KDMX 260601
RWRIA

WEATHER ROUNDUP FOR IOWA
NATIONAL WEATHER SERVICE DES MOINES IA
100 AM CDT MON JUN 26 2017

NOTE: "FAIR" INDICATES FEW OR NO CLOUDS BELOW 12,000 FEET WITH NO
SIGNIFICANT WEATHER AND/OR OBSTRUCTIONS TO VISIBILITY.

* - THESE STATIONS ARE NOT NWS STATIONS...THUS NOT UNDER NWS
QUALITY CONTROL.  THEY ALSO DO NOT REPORT WEATHER SUCH
AS PRECIPITATION OR FOG.

IAZ001>003-012>014-020>022-031>034-043>046-260700-
   NORTHWEST IOWA

CITY           SKY/WX    TMP DP  RH WIND       PRES   REMARKS
CARROLL *      CLEAR     50  45  81 CALM      30.19S
CHEROKEE *     LGT RAIN  55  50  82 NE5       30.23R
DENISON *      CLEAR     50  45  81 CALM      30.20R
LE MARS *      CLOUDY    59  46  63 E7        30.21S
ORANGE CITY *  CLOUDY    55  50  82 E5        30.21F
SHELDON *      CLOUDY    55  52  88 CALM      30.20F
SIOUX CITY     MOCLDY    60  46  59 N10       30.21R
6HR MIN TEMP:  53; 6HR MAX TEMP:  75;

SPENCER        MOCLDY    56  51  84 NW7       30.22R
6HR MIN TEMP:  55; 6HR MAX TEMP:  71; 6HR PCP:  0.01;

STORM LAKE *   CLOUDY    59  45  58 NE12      30.22R
$$

IAZ055>058-069>071-079>083-090>094-260700-
   SOUTHWEST IOWA

CITY           SKY/WX    TMP DP  RH WIND       PRES   REMARKS
ATLANTIC *     CLEAR     52  48  87 CALM      30.19F
AUDUBON *      CLEAR     48  45  87 CALM      30.20F
CLARINDA *       N/A     52  50  93 CALM      30.23S
COUNCIL BLFS * CLEAR     61  45  55 S8        30.19S
CRESTON *      CLEAR     55  46  71 SW5       30.22R
HARLAN  *      CLEAR     50  46  87 CALM      30.22F
LAMONI         PTCLDY    60  45  57 SW5       30.20F
6HR MIN TEMP:  60; 6HR MAX TEMP:  73;

RED OAK *      PTCLDY    52  50  93 CALM      30.20S
SHENANDOAH *   PTCLDY    55  50  82 CALM      30.21S
$$

IAZ047>049-059>061-072>074-084-260700-
   CENTRAL IOWA

CITY           SKY/WX    TMP DP  RH WIND       PRES   REMARKS
AMES           PTCLDY    52  48  86 CALM      30.18F
6HR MIN TEMP:  52; 6HR MAX TEMP:  73;

ANKENY *       CLEAR     52  48  87 CALM      30.20F
BOONE *        PTCLDY    55  45  67 CALM      30.17F
CHARITON *     CLEAR     57  46  67 CALM      30.20S
DES MOINES     CLEAR     60  48  64 CALM      30.19F
6HR MIN TEMP:  60; 6HR MAX TEMP:  73;

GRINNELL*      CLEAR     56  45  66 CALM      30.20S
KNOXVILLE *    CLEAR     54  50  87 SW5       30.18F
MARSHALLTOWN   CLEAR     54  46  74 W3        30.17F
6HR MIN TEMP:  53; 6HR MAX TEMP:  70;

NEWTON *       PTCLDY    52  46  82 W5        30.19S
PELLA *        CLEAR     55  44  68 CALM      30.20F
PERRY *          N/A     51  47  88 S3        30.19F
$$

IAZ004>006-015-016-023>025-035-036-260700-
   NORTH CENTRAL IOWA

CITY           SKY/WX    TMP DP  RH WIND       PRES   REMARKS
ALGONA *       HVY RAIN  55  54  94 NW17G25   30.22R
CLARION *        N/A     57  48  72 W7        30.18S
ESTHERVILLE    CLOUDY    54  52  93 W12       30.19R
6HR MIN TEMP:  54; 6HR MAX TEMP:  66; 6HR PCP:  0.08;

FORT DODGE *   PTCLDY    55  46  71 N6        30.20R
MASON CITY     MOCLDY    53  44  71 W9        30.18S
6HR MIN TEMP:  51; 6HR MAX TEMP:  68;

FOREST CITY *  CLOUDY    52  37  58 CALM      30.17S
WEBSTER CITY * MOCLDY    54  50  87 CALM      30.17R
IOWA FALLS *     N/A     53  47  78 W8        30.19S
$$

IAZ007>011-017>019-026>030-037>042-050>054-066-260700-
   NORTHEAST IOWA

CITY           SKY/WX    TMP DP  RH WIND       PRES   REMARKS
CEDAR RAPIDS   CLEAR     53  45  74 NW3       30.15F
6HR MIN TEMP:  50; 6HR MAX TEMP:  68;

CHARLES CITY * CLEAR     52  46  82 W5        30.15F
CLINTON *      CLEAR     52  50  93 MISG      30.15S
DECORAH *      CLOUDY    54  45  71 CALM      30.12F
DUBUQUE        CLEAR     51  45  79 CALM      30.14S
6HR MIN TEMP:  51; 6HR MAX TEMP:  66;

MONTICELLO *   CLEAR     52  46  82 W6        30.14F
WATERLOO       CLEAR     50  45  83 CALM      30.15F
6HR MIN TEMP:  50; 6HR MAX TEMP:  69;

$$

IAZ064-065-067-068-078-260700-
   EAST CENTRAL IOWA

CITY           SKY/WX    TMP DP  RH WIND       PRES   REMARKS
DAVENPORT      CLEAR     53  48  83 W6        30.15F
6HR MIN TEMP:  53; 6HR MAX TEMP:  67;

IOWA CITY      CLEAR     54  45  71 W5        30.18S
6HR MIN TEMP:  54; 6HR MAX TEMP:  72;

MT. PLEASANT * CLEAR     57  46  66 W5        30.18S
MUSCATINE *    PTCLDY    55  46  71 CALM      30.17S
QUAD CITIES    PTCLDY    54  48  80 SW3       30.15S
6HR MIN TEMP:  54; 6HR MAX TEMP:  70;

$$

IAZ062-063-075>077-085>089-095>099-260700-
   SOUTHEAST IOWA

CITY           SKY/WX    TMP DP  RH WIND       PRES   REMARKS
BURLINGTON     CLEAR     55  48  77 NW5       30.18R
6HR MIN TEMP:  55; 6HR MAX TEMP:  72;

FAIRFIELD *    CLEAR     55  45  67 W6        30.18S
FORT MADISON * PTCLDY    57  46  67 W6        30.19R
KEOKUK *       PTCLDY    55  48  76 W5        30.18R
OSKALOOSA *      N/A     53  46  76 W6        30.19S
OTTUMWA        PTCLDY    49  47  93 W3        30.19S
6HR MIN TEMP:  49; 6HR MAX TEMP:  72;

WASHINGTON *   CLEAR     52  46  82 W6        30.19S
$$

ABBREVIATIONS USED IN REMARKS
   TC - TEMPERATURES IN CELSIUS
  WCI - WIND CHILL INDEX
   HX - HEAT INDEX
  VSB - VISIBILITY
$$




USA.gov is the U.S. government's official web portal to all federal, state and local government web resources and services.